EW8791 Weather Reports


Display with metric or nautical units.
time (UTC)temp
F
wind
direction
speed
MPH
gust
MPH
rain 1hr
in
rain 24hr
in
rain mn
in
humidity
%
barometer
mb
20220818074538 65 36 0.0 5.0 0.00 0.02 0.00 74 1007.0
20220818073038 66 239 0.0 6.0 0.00 0.02 0.00 73 1007.1
20220818071605 65 117 0.0 5.0 0.00 0.02 0.00 74 1007.1
20220818070030 65 219 0.0 5.0 0.00 0.02 0.00 75 1007.1
20220818064527 65 284 0.0 3.0 0.00 0.02 0.00 76 1007.0
20220818063029 66 238 0.0 3.0 0.00 0.02 0.00 76 1007.2
20220818061527 66 257 0.0 9.0 0.00 0.02 0.00 75 1007.1
20220818060029 66 39 0.0 6.0 0.00 0.02 0.00 75 1007.3
20220818054540 66 296 0.0 5.0 0.00 0.02 0.00 75 1007.3
20220818053031 66 228 1.0 7.0 0.00 0.02 0.00 74 1007.4
20220818051529 67 226 0.0 6.0 0.00 0.02 0.00 73 1007.4
20220818050011 67 254 1.0 4.0 0.00 0.02 0.00 72 1007.5
20220818044510 67 207 0.0 5.0 0.00 0.02 0.00 71 1007.5
20220818043008 67 62 0.0 4.0 0.00 0.02 0.00 72 1007.6
20220818041510 67 297 0.0 3.0 0.00 0.02 0.00 73 1007.8
20220818040009 67 219 0.0 3.0 0.00 0.02 0.00 76 1008.0
20220818034502 67 251 0.0 2.0 0.00 0.02 0.02 78 1008.1
20220818033117 66 248 0.0 3.0 0.00 0.02 0.02 81 1008.4
20220818031600 67 202 0.0 1.0 0.00 0.02 0.02 80 1008.7
20220818030122 68 13 0.0 4.0 0.00 0.02 0.02 75 1009.1
20220818024602 68 244 0.0 2.0 0.00 0.02 0.02 70 1009.3
20220818023102 68 234 0.0 2.0 0.00 0.02 0.02 69 1009.4
20220818021559 68 225 0.0 1.0 0.00 0.02 0.02 67 1009.7
20220818020053 68 225 0.0 1.0 0.00 0.02 0.02 68 1009.9
20220818014554 68 232 0.0 1.0 0.00 0.02 0.02 66 1010.1
20220818013047 68 196 0.0 0.0 0.00 0.02 0.02 67 1010.2
20220818011554 68 196 0.0 0.0 0.00 0.02 0.02 67 1010.4
20220818010051 68 196 0.0 0.0 0.00 0.02 0.02 67 1010.4
20220818004657 68 196 0.0 0.0 0.00 0.02 0.02 65 1010.6
20220818003130 69 261 0.0 0.0 0.00 0.02 0.02 65 1010.7
20220818001603 69 261 0.0 4.0 0.00 0.02 0.02 64 1010.8
20220818000052 69 81 0.0 2.0 0.00 0.02 0.02 63 1010.8
20220817234542 70 360 0.0 2.0 0.00 0.02 0.02 63 1010.9
20220817233042 70 345 0.0 3.0 0.00 0.02 0.02 62 1010.8
20220817231543 70 42 0.0 4.0 0.00 0.02 0.02 62 1011.1
20220817230036 70 304 0.0 4.0 0.00 0.02 0.02 64 1011.3
20220817224603 70 355 0.0 15.0 0.00 0.02 0.02 64 1011.2
20220817223037 71 263 1.0 4.0 0.00 0.02 0.02 64 1011.1
20220817221535 71 42 0.0 8.0 0.00 0.02 0.02 66 1011.2
20220817220029 71 296 2.0 10.0 0.00 0.02 0.02 64 1011.4
20220817214518 71 42 0.0 7.0 0.00 0.02 0.02 63 1011.6
20220817213035 71 112 0.0 14.0 0.00 0.02 0.02 61 1011.9
20220817211520 71 45 1.0 10.0 0.00 0.02 0.02 60 1012.1
20220817210030 72 340 1.0 15.0 0.00 0.02 0.02 60 1012.0
20220817204527 72 276 1.0 11.0 0.00 0.02 0.02 58 1012.0
20220817203012 72 57 2.0 13.0 0.00 0.02 0.02 56 1012.3
20220817201537 73 237 1.0 5.0 0.00 0.02 0.02 55 1012.3
20220817200030 72 347 1.0 11.0 0.00 0.02 0.02 56 1012.5
20220817194509 72 28 3.0 9.0 0.00 0.02 0.02 55 1012.6
20220817193009 73 20 0.0 6.0 0.00 0.02 0.02 56 1012.6
20220817191512 73 351 2.0 9.0 0.00 0.02 0.02 57 1012.8
20220817190006 74 276 1.0 10.0 0.00 0.02 0.02 55 1012.8
20220817184509 73 9 4.0 12.0 0.00 0.02 0.02 61 1012.9
20220817183014 73 19 3.0 13.0 0.00 0.02 0.02 61 1013.3
20220817181519 72 13 0.0 6.0 0.00 0.02 0.02 62 1013.4
20220817180003 72 51 1.0 8.0 0.00 0.02 0.02 62 1013.6
20220817174508 72 15 0.0 5.0 0.00 0.02 0.02 61 1013.7
20220817173002 73 340 0.0 8.0 0.00 0.02 0.02 60 1013.7
20220817171502 74 28 1.0 5.0 0.00 0.02 0.02 58 1013.6
20220817170002 75 26 1.0 9.0 0.00 0.02 0.02 56 1013.6
20220817164602 75 288 2.0 0.0 0.00 0.00 0.02 56 1013.5
20220817163102 76 207 2.0 9.0 0.00 0.02 0.02 54 1013.3
20220817161636 77 311 4.0 11.0 0.00 0.02 0.02 50 1013.3
20220817160108 78 31 1.0 9.0 0.00 0.02 0.02 49 1013.1
20220817154703 78 140 1.0 10.0 0.00 0.02 0.02 47 1013.3
20220817153101 78 78 4.0 16.0 0.00 0.02 0.02 46 1013.3
20220817153016 78 35 2.0 13.0 0.00 0.02 0.02 47 1013.3
20220817151553 77 42 2.0 14.0 0.00 0.02 0.02 52 1013.4
20220817151525 77 11 3.0 14.0 0.00 0.02 0.02 50 1013.4
20220817150043 76 12 1.0 5.0 0.00 0.02 0.02 56 1013.2
20220817144544 76 340 3.0 11.0 0.00 0.02 0.02 57 1013.3
20220817143044 77 40 2.0 11.0 0.00 0.02 0.02 56 1013.5
20220817141536 76 41 1.0 9.0 0.00 0.02 0.02 61 1013.5
20220817140034 75 53 1.0 10.0 0.00 0.02 0.02 63 1013.5
20220817134544 73 229 1.0 7.0 0.00 0.02 0.02 65 1013.5
20220817133030 72 67 1.0 9.0 0.00 0.02 0.02 67 1013.7
20220817131527 72 33 1.0 5.0 0.00 0.02 0.02 69 1013.8
20220817130025 70 26 1.0 6.0 0.00 0.02 0.02 74 1013.9
20220817124517 69 69 1.0 7.0 0.00 0.02 0.02 77 1013.9
20220817123012 68 43 1.0 8.0 0.00 0.02 0.02 79 1013.9
20220817121517 67 344 0.0 3.0 0.00 0.02 0.02 81 1014.1
20220817120009 67 54 0.0 3.0 0.00 0.02 0.02 82 1014.1
20220817114513 66 246 0.0 2.0 0.00 0.02 0.02 83 1014.2
20220817113010 66 192 0.0 4.0 0.00 0.02 0.02 84 1014.2
20220817111508 65 32 0.0 2.0 0.00 0.02 0.02 86 1014.1
20220817110008 65 90 0.0 0.0 0.00 0.02 0.02 87 1014.3
20220817104507 64 90 0.0 3.0 0.00 0.02 0.02 87 1014.3
20220817103006 64 234 0.0 3.0 0.00 0.02 0.02 89 1014.3
20220817101513 64 215 0.0 0.0 0.00 0.02 0.02 88 1014.3
20220817100011 63 17 0.0 1.0 0.00 0.02 0.02 90 1014.1
20220817094504 63 259 0.0 0.0 0.00 0.02 0.02 90 1014.0
20220817093008 63 233 0.0 0.0 0.00 0.02 0.02 90 1014.1
20220817091503 63 233 0.0 0.0 0.00 0.02 0.02 91 1014.1
20220817090104 63 282 0.0 0.0 0.01 0.02 0.02 91 1014.0
20220817084600 63 282 0.0 0.0 0.02 0.02 0.02 90 1014.2
20220817083126 64 282 0.0 0.0 0.02 0.02 0.02 89 1014.3
20220817081618 64 303 0.0 0.0 0.02 0.02 0.02 88 1014.4
20220817080054 64 303 0.0 0.0 0.01 0.01 0.01 86 1014.5